Weather History for Cumshewa Island, BC

Change the Weather History Date:

Wednesday, January 2, 2013

  Actual Average Record
Temperature  
Mean Temperature 44 °F -  
Max Temperature 47 °F - - ()
Min Temperature 40 °F - - ()
Degree Days  
Heating Degree Days 22    
Moisture  
Dew Point 43 °F    
Average Humidity 92    
Maximum Humidity 96    
Minimum Humidity 84    
Precipitation  
Precipitation 0.00 in - - ()
Sea Level Pressure  
Sea Level Pressure 29.90 in    
Wind  
Wind Speed 20 mph ()    
Max Wind Speed 30 mph    
Max Gust Speed -    
T = Trace of Precipitation, MM = Missing Value Source: Averaged Metar Reports

Daily Weather History Graph

Daily Weather History Graph

Search for Another Location

Airport:

Trip Planner

Search our weather history database for the weather conditions in past years. The results will help you decide how hot, cold, wet, or windy it might be!

Date:

Astronomy

Jan. 02, 2013 Rise Set
Actual Time 8:59 AM PST 4:42 PM PST
Civil Twilight 8:17 AM PST 5:23 PM PST
Nautical Twilight 7:33 AM PST 6:08 PM PST
Astronomical Twilight 6:51 AM PST 6:50 PM PST
Moon 11:13 PM PST (1/2) 10:57 AM PST (1/2)
Length of Visible Light 9h 06m
Length of Day
7h 42m
Waning Gibbous, 74% of the Moon is Illuminated
Jan 2
Waning Gibbous
Jan 4
Last Quarter
Jan 11
New
Jan 18
First Quarter
Jan 26
Full

Hourly Weather History & Observations

Time (PST) Temp. Windchill Dew Point Humidity Pressure Visibility Wind Dir Wind Speed Gust Speed Precip Events Conditions
12:00 AM 45.7 °F 36.7 °F 42.8 °F 90% 29.97 in - SSE 26.5 mph - N/A   Unknown
1:00 AM 45.7 °F 36.2 °F 43.3 °F 92% 29.95 in - South 29.9 mph - N/A   Unknown
2:00 AM 45.9 °F 37.6 °F 43.2 °F 90% 29.93 in - SSE 23.0 mph - N/A   Unknown
3:00 AM 45.5 °F 36.0 °F 43.2 °F 92% 29.93 in - SSE 29.9 mph - N/A   Unknown
4:00 AM 46 °F - 43 °F 84% 29.91 in - South 28.8 mph - -  
4:00 AM 45.7 °F 36.4 °F 42.6 °F 89% 29.91 in - South 28.8 mph - N/A   Unknown
5:00 AM 45.5 °F 36.9 °F 44.1 °F 95% 29.91 in - SSE 24.2 mph - N/A   Unknown
6:00 AM 45.9 °F 37.2 °F 43.9 °F 93% 29.90 in - SSE 25.3 mph - N/A   Unknown
7:00 AM 46.0 °F 37.0 °F 43.3 °F 90% 29.86 in - SSE 27.6 mph - N/A   Unknown
8:00 AM 46.2 °F 37.7 °F 43.9 °F 92% 29.86 in - SSE 25.3 mph - N/A   Unknown
9:00 AM 46.0 °F 37.8 °F 44.1 °F 93% 29.86 in - SSE 23.0 mph - N/A   Unknown
10:00 AM 46 °F - 44 °F 90% 29.86 in - SSE 23.0 mph - -  
10:00 AM 46.0 °F 37.8 °F 44.1 °F 93% 29.86 in - SSE 23.0 mph - N/A   Unknown
11:00 AM 46.4 °F 38.5 °F 44.4 °F 93% 29.86 in - SSE 21.9 mph - N/A   Unknown
12:00 PM 46.6 °F - 44.4 °F 92% 29.85 in - SSE 19.6 mph - N/A   Unknown
1:00 PM 46.9 °F - 44.2 °F 90% 29.83 in - South 21.9 mph - N/A   Unknown
2:00 PM 46.9 °F - 44.8 °F 92% 29.83 in - SSE 18.4 mph - N/A   Unknown
3:00 PM 47.5 °F - 44.4 °F 89% 29.83 in - South 15.0 mph - N/A   Unknown
4:00 PM 47 °F - 45 °F 90% 29.83 in - South 12.7 mph - -  
4:00 PM 46.9 °F - 45.0 °F 93% 29.83 in - South 12.7 mph - N/A   Unknown
5:00 PM 47.1 °F - 44.8 °F 92% 29.86 in - South 11.5 mph - N/A   Unknown
6:00 PM 46.9 °F - 45.1 °F 93% 29.89 in - South 6.9 mph - N/A   Unknown
7:00 PM 41.4 °F 30.9 °F 39.7 °F 94% 29.91 in - North 26.5 mph - N/A   Unknown
8:00 PM 40.8 °F 32.0 °F 39.2 °F 94% 29.95 in - NNW 18.4 mph - N/A   Unknown
9:00 PM 40.8 °F 35.0 °F 39.4 °F 95% 29.97 in - NNW 9.2 mph - N/A   Unknown
10:00 PM 40 °F - 39 °F 96% 29.99 in - NW 5.8 mph - -  
10:00 PM 40.5 °F 36.5 °F 39.2 °F 95% 29.99 in - NW 5.8 mph - N/A   Unknown
11:00 PM 40.5 °F 36.5 °F 39.2 °F 95% 29.99 in - WNW 5.8 mph - N/A   Unknown